Dewpoint
16 14 13 12 15 14 15 15 12 13 13 12 12 13 13 14 13 13 13 7 1 3 8 8 13 10 7 9 12 11 10 11 13 13 14 13 13 14 13 9 8 0 5 5 12 12 9 7 7
16 14 12 12 16 15 16 13 14 12 12 13 13 13 13 14 15 13 12 9 3 3 7 8 13 10 7 11 11 10 11 13 14 13 14 14 13 13 13 9 5 12 14 13 11 10 11 10 7
16 14 14 15 15 16 15 13 13 12 12 12 13 13 13 14 14 12 10 7 8 7 8 8 11 13 13 11 13 12 13 13 13 15 12 13 12 13 14 14 8 14 13 12 11 11 10 9 8
13 15 14 14 14 13 14 12 11 11 11 12 12 12 14 14 13 10 9 9 10 10 10 9 9 11 12 11 14 13 13 12 14 13 11 10 12 11 12 15 7 11 13 13 9 9 11 11 9
12 12 15 14 14 13 12 11 11 11 11 11 11 13 13 13 11 9 10 11 11 11 11 11 11 11 11 14 15 14 12 11 10 9 9 10 12 12 13 12 14 11 10 11 11 9 13 14 14
14 14 14 15 13 12 11 11 11 11 12 12 12 13 14 13 13 10 11 11 9 9 11 11 11 11 13 15 15 11 11 9 8 8 11 10 12 14 12 12 12 13 10 10 9 10 12 14 14
13 14 14 13 12 13 12 11 11 12 12 12 13 13 15 14 13 11 11 9 9 9 11 11 9 9 14 15 12 14 10 8 7 11 11 14 11 11 13 13 13 11 11 11 10 9 9 11 13
14 13 14 13 12 12 11 11 11 12 12 13 13 12 14 13 12 11 10 11 11 10 10 11 10 11 15 15 14 14 10 8 8 14 12 10 14 13 14 12 12 12 12 10 10 9 8 8 9
13 14 13 11 12 11 10 11 12 12 12 12 13 13 12 9 10 10 10 11 12 11 11 11 11 11 12 10 10 11 11 14 9 12 10 9 9 12 14 12 14 12 11 10 10 11 12 9 8
13 13 11 9 8 10 10 11 11 12 12 13 14 13 12 9 8 10 11 12 12 11 10 10 10 11 10 10 11 14 15 13 11 12 9 8 8 11 12 12 12 11 11 11 11 12 12 11 11
14 12 12 10 8 10 10 11 11 11 12 12 13 14 13 12 12 13 13 13 13 12 12 11 11 11 10 11 10 9 8 8 8 8 8 10 9 9 9 9 8 9 9 9 10 11 12 11 12
13 12 13 11 9 10 11 11 11 11 11 11 12 13 14 14 14 14 14 12 12 12 11 11 11 10 10 10 8 7 8 9 10 14 10 12 14 14 14 11 12 12 11 13 14 14 14 14 14
12 10 10 11 9 10 11 11 11 11 11 12 13 14 14 14 14 14 14 13 13 12 11 11 10 8 8 7 5 8 9 10 12 13 12 13 14 14 15 14 14 15 15 15 15 15 15 14 14
9 10 8 8 9 10 11 11 11 11 12 13 13 14 14 14 14 14 13 13 13 13 9 9 9 8 7 9 6 9 12 13 14 12 12 13 14 14 14 14 14 15 15 15 14 14 15 15 15
8 8 7 9 9 10 11 12 12 12 12 13 13 14 14 14 14 13 13 13 13 13 13 9 9 11 11 11 12 13 13 14 14 14 14 14 14 14 14 14 14 15 15 15 15 14 15 15 15
8 8 9 8 10 11 10 11 11 12 12 13 13 14 14 14 12 12 12 12 13 12 14 10 9 13 14 14 14 15 15 15 15 14 14 14 14 14 14 14 14 15 14 15 14 14 14 15 16
9 9 8 8 9 11 11 11 9 12 12 12 13 13 14 14 13 12 12 12 12 12 13 11 10 13 13 14 14 14 15 15 15 15 14 14 14 15 15 15 15 15 15 14 14 14 15 15 15
9 8 7 8 8 10 11 10 11 12 12 12 13 13 13 14 13 12 12 12 12 12 12 13 12 11 12 14 14 14 14 14 14 14 14 14 14 15 14 15 15 15 15 14 14 15 15 14 14
8 8 7 6 5 9 10 9 10 11 11 11 12 12 12 13 11 13 12 12 12 12 12 13 13 13 13 13 14 14 14 14 14 13 13 13 14 14 15 15 16 15 15 15 15 15 14 15 14
5 4 4 4 6 9 9 11 9 10 11 11 11 11 11 11 12 12 11 11 11 11 12 12 13 13 13 14 14 14 14 13 14 14 13 15 14 14 14 14 15 15 15 15 16 15 14 14 14
3 1 2 4 9 8 9 10 10 9 10 11 11 10 10 10 11 11 11 11 11 11 11 12 12 13 13 13 14 14 14 14 15 13 13 14 14 14 14 14 15 16 15 15 14 14 14 16 16
2 -1 0 0 4 5 8 9 10 9 10 11 10 10 10 10 11 11 11 10 10 10 10 11 11 12 13 13 13 14 14 14 14 11 12 13 14 14 14 14 15 15 16 15 15 16 16 16 16
-0 -1 -1 5 6 8 9 10 9 10 11 10 10 10 9 9 10 10 11 11 10 10 10 10 11 11 12 13 13 14 14 14 14 13 11 13 14 14 14 14 15 15 16 16 16 16 16 16 16
-2 -1 -0 3 5 8 6 9 5 8 9 8 8 9 9 9 9 10 10 9 10 10 10 11 11 11 11 12 13 13 13 13 14 12 12 13 14 14 14 14 15 15 15 16 17 16 16 16 16
-2 -1 3 4 5 4 5 9 6 5 5 6 5 8 9 9 9 10 11 10 9 10 10 11 11 12 12 11 12 12 12 11 12 12 12 13 14 14 14 14 15 15 16 16 16 16 16 16 16
-3 -3 2 7 5 3 4 4 1 0 -2 -2 1 6 8 9 9 9 9 8 9 9 10 10 11 12 12 12 12 12 12 11 11 11 10 13 14 14 14 15 15 15 15 16 16 16 16 16 16
-2 -1 -3 -1 0 2 2 2 -1 0 -1 -0 3 5 7 8 8 5 6 6 7 8 9 10 10 11 11 12 12 12 12 12 11 10 9 10 12 13 13 15 16 15 16 16 16 16 16 16 17
-4 -3 -2 1 4 5 3 4 1 2 2 1 1 6 7 7 8 5 5 6 5 6 8 9 9 10 10 11 11 12 12 13 13 11 10 9 9 11 12 14 15 16 16 16 16 17 16 16 16
-5 -1 -0 -1 1 2 4 1 0 1 0 0 -4 3 7 7 7 6 1 2 3 5 7 7 8 9 10 10 11 11 12 12 13 13 12 11 10 10 11 13 14 14 15 14 14 15 15 16 16
-7 -6 -3 -2 1 2 2 -1 -4 0 -2 -3 -4 -4 3 7 6 5 3 -0 1 3 5 6 6 7 8 9 10 10 11 11 12 13 13 13 11 10 10 11 13 14 15 15 16 17 16 16 16
Wind_Speed
1 0 2 3 1 2 3 3 1 8 6 3 17 4 4 3 1 2 14 25 23 22 22 19 15 13 12 9 7 6 6 8 8 8 9 9 9 9 7 6 8 10 13 11 11 8 7 8 8
0 2 4 3 3 3 2 2 7 3 8 17 11 8 3 3 2 9 23 24 23 21 20 18 15 12 12 9 7 6 6 7 7 7 9 9 10 9 8 8 10 12 11 12 10 9 9 10 9
2 3 3 2 2 2 3 1 7 13 11 11 5 5 2 2 5 23 21 26 22 20 18 16 15 13 10 8 7 7 6 7 7 7 9 9 10 10 9 8 11 10 10 10 9 8 7 8 9
1 2 3 2 5 1 1 4 13 11 9 4 11 7 4 2 20 15 25 23 20 18 17 15 14 12 10 8 7 6 7 8 8 8 9 9 9 10 9 8 11 10 9 8 7 7 8 9 9
1 1 2 3 3 1 1 9 9 5 4 7 4 6 9 6 11 20 22 20 18 17 16 14 13 10 8 8 7 6 7 7 8 9 11 11 9 9 9 9 10 10 8 6 6 6 7 6 6
2 1 2 3 2 2 3 10 8 5 6 7 10 12 5 5 13 22 20 18 16 16 15 13 11 9 9 7 7 6 7 7 8 11 10 10 9 8 8 9 8 7 7 6 6 4 4 4 4
2 1 2 1 2 1 3 9 6 5 7 5 14 6 5 10 18 23 20 17 16 16 15 12 10 10 9 9 8 7 6 7 9 10 9 8 9 8 7 7 7 6 5 5 5 3 3 4 3
1 1 2 1 3 0 8 10 7 5 3 12 7 5 8 16 22 21 19 17 17 17 16 13 10 9 9 8 8 8 7 7 9 10 7 8 7 7 6 6 6 5 5 5 5 4 1 2 3
0 1 1 2 5 2 14 8 6 5 10 4 4 6 15 23 23 20 19 17 17 17 16 12 9 7 8 8 8 8 7 7 9 9 7 7 6 6 6 5 5 5 6 5 5 6 4 2 2
1 0 2 2 4 4 17 13 12 6 11 3 6 5 22 22 23 21 19 18 18 16 15 12 9 7 8 8 9 8 8 8 9 8 7 6 6 5 5 5 3 3 4 3 0 3 5 2 4
2 1 1 3 6 8 16 10 9 10 8 11 12 19 25 22 20 18 16 15 15 14 15 13 11 9 8 9 8 9 9 10 9 8 8 7 6 4 3 2 1 1 1 0 1 4 4 4 5
2 5 4 4 5 12 15 12 8 12 1 10 11 25 25 22 20 19 16 15 13 14 14 14 12 11 11 10 9 10 11 11 10 8 9 9 7 6 5 4 5 4 3 4 4 5 5 7 9
3 3 4 5 10 10 12 12 5 12 2 12 18 24 23 21 19 18 15 14 12 11 13 15 14 13 12 10 11 11 11 10 9 9 8 7 5 3 3 3 3 2 3 4 5 6 7 8 10
4 6 6 4 13 12 13 7 7 11 7 14 21 22 20 20 19 18 18 17 15 12 13 14 14 14 13 11 12 12 10 9 7 8 8 6 4 3 2 0 1 2 4 5 6 7 8 10 11
6 4 2 5 13 7 12 6 11 11 15 18 20 19 19 19 19 19 17 17 16 14 13 16 15 15 15 14 13 13 11 9 7 7 7 6 5 3 3 3 4 5 6 6 7 8 9 11 12
3 1 3 5 12 7 11 7 14 17 20 21 19 20 19 20 21 18 17 15 14 16 16 16 17 17 17 16 14 12 9 7 6 7 8 6 3 2 3 3 4 5 7 8 8 10 12 14 14
4 10 10 4 13 8 12 6 6 19 20 21 21 20 21 20 22 21 20 18 17 16 17 18 19 21 18 17 16 13 11 10 10 11 10 8 7 6 6 6 5 6 7 7 8 12 13 13 13
15 15 12 11 5 12 12 14 6 19 22 23 23 22 22 22 26 23 22 19 19 18 18 19 20 22 19 19 17 15 13 11 11 11 9 8 8 7 5 6 5 5 5 5 7 10 12 13 13
10 11 15 16 6 10 16 17 14 20 20 20 21 22 23 25 25 24 24 24 23 23 22 23 23 23 23 21 21 19 18 14 12 11 7 9 9 7 6 4 5 6 7 7 8 10 11 12 13
8 14 13 8 3 10 8 16 13 18 26 28 26 23 25 26 22 22 23 24 25 25 25 26 24 24 23 23 21 19 17 15 13 13 11 8 8 7 7 6 5 5 7 8 10 11 13 13 11
11 13 13 7 4 5 6 8 11 13 21 24 24 24 24 27 26 24 24 26 24 26 27 27 27 26 24 23 23 21 20 20 18 18 16 10 9 11 11 9 8 8 8 8 9 9 11 13 12
14 7 10 13 8 5 2 5 4 11 15 17 26 27 27 28 28 25 24 27 25 23 23 26 25 28 26 25 25 25 22 20 16 14 14 14 11 10 10 10 10 10 10 9 8 10 11 13 13
12 5 7 5 3 3 3 4 2 1 11 19 26 30 31 31 30 29 28 28 28 25 23 25 24 25 26 25 25 24 24 21 17 14 15 16 13 14 12 12 11 10 10 10 11 12 13 14 16
7 8 1 1 1 4 1 4 3 4 5 7 21 32 32 30 29 29 30 30 30 27 27 25 24 23 23 24 26 26 23 20 19 17 19 18 15 13 12 11 10 10 9 8 11 13 15 17 18
1 4 5 4 4 3 2 4 9 10 12 12 10 26 33 29 27 27 28 29 32 32 30 29 27 26 24 24 24 24 22 20 20 19 21 19 18 16 14 12 11 12 12 11 11 12 14 16 16
8 5 5 4 5 10 2 5 6 5 10 12 11 17 26 27 25 25 26 28 30 33 33 32 30 28 28 26 25 24 23 22 21 20 21 21 19 17 16 15 14 14 14 15 14 14 15 13 14
4 7 6 7 1 3 3 6 12 1 10 10 8 11 19 27 26 29 27 28 27 29 31 34 33 30 29 28 27 27 25 24 22 20 19 21 22 20 18 17 15 15 16 15 17 17 14 15 19
7 7 4 3 5 7 5 4 11 11 13 12 11 5 14 22 26 28 28 29 28 28 30 31 32 31 30 30 30 29 27 25 23 21 22 21 20 19 19 19 17 17 18 17 17 16 14 18 18
3 5 3 3 3 8 8 7 4 6 9 10 11 7 12 19 25 29 32 30 27 29 29 30 32 34 35 33 32 30 28 28 26 25 22 22 21 20 20 20 20 19 18 18 18 16 17 20 17
5 3 4 5 6 3 4 11 4 4 6 9 15 16 7 17 27 35 35 32 34 33 31 32 32 33 33 32 32 31 29 28 28 27 24 23 23 22 23 22 21 20 21 21 17 17 19 16 16
Wind_Direction
185 173 3 39 115 78 76 80 97 123 134 180 154 194 185 88 199 31 148 157 162 163 160 160 151 166 163 153 136 119 133 136 135 140 130 129 131 138 129 130 123 123 120 127 132 130 127 128 131
163 39 35 44 70 82 57 337 106 113 126 128 122 121 110 100 87 138 143 156 160 163 162 162 154 165 163 156 139 134 141 137 136 134 133 130 134 133 123 110 118 114 117 117 118 124 125 125 124
197 41 20 51 79 99 131 106 110 116 139 150 115 75 74 55 147 147 152 154 158 163 163 163 159 154 159 154 145 141 139 131 127 134 138 131 135 135 130 121 123 125 130 126 129 129 128 129 132
146 56 51 52 92 118 257 133 135 124 103 98 122 82 64 97 137 148 150 154 157 163 161 160 158 160 156 152 144 149 142 134 136 138 141 135 137 139 134 122 116 129 123 123 120 135 120 125 132
57 44 65 92 78 58 235 141 138 124 100 116 132 111 112 123 141 150 153 153 159 163 163 161 158 158 158 158 153 152 139 140 142 136 132 138 134 132 131 127 119 114 120 117 119 123 130 131 129
261 111 96 76 40 3 100 149 136 103 109 116 111 114 135 162 161 160 158 156 160 166 166 163 162 168 166 160 158 153 133 140 141 138 131 134 143 133 134 132 124 116 112 103 100 131 152 138 142
284 61 86 117 112 102 152 163 138 134 138 127 139 115 132 147 162 162 162 161 162 165 167 163 166 169 162 160 158 147 143 145 145 134 140 138 131 136 136 128 124 114 102 88 89 111 158 190 207
31 355 125 201 193 187 163 162 159 146 86 135 130 152 159 164 162 161 162 164 166 165 167 162 158 157 165 161 159 152 152 145 153 144 157 153 149 154 138 126 121 115 104 94 84 78 68 216 204
335 66 191 201 178 153 167 159 150 119 140 161 147 127 154 157 163 164 163 168 173 175 173 173 165 161 161 160 163 158 154 157 160 160 157 156 153 157 141 140 121 112 110 115 98 62 37 292 262
285 130 192 208 228 203 181 178 154 144 164 162 142 141 160 160 168 172 172 177 180 182 184 187 183 176 170 170 165 164 163 161 163 165 164 146 148 160 156 141 129 117 118 125 20 345 6 346 300
139 304 327 278 233 185 172 176 167 153 192 208 180 157 166 168 175 180 184 187 189 193 196 193 189 185 179 177 167 169 167 160 160 159 158 158 141 140 129 105 99 124 75 84 336 320 320 324 308
290 243 244 294 157 158 169 173 183 181 113 196 182 166 168 175 181 187 191 190 187 192 196 195 190 191 186 176 171 172 170 167 162 153 158 144 123 113 100 99 85 77 80 41 9 339 318 307 302
223 303 285 240 164 176 161 183 181 192 100 149 158 168 177 182 186 191 192 193 190 189 187 187 189 189 183 175 176 174 170 169 164 170 160 153 145 141 105 99 79 61 34 356 340 336 329 316 308
265 249 283 169 172 165 172 171 183 193 160 154 166 177 186 193 193 196 200 199 198 185 186 189 185 182 178 172 172 170 167 165 160 163 164 165 165 187 183 192 346 331 329 333 329 329 327 322 320
271 267 167 145 167 161 153 162 216 179 175 172 180 188 193 198 202 206 203 204 201 196 192 194 188 176 171 168 165 166 167 172 175 173 172 172 189 219 253 280 307 323 303 316 306 316 325 318 317
305 281 300 162 164 165 190 257 199 176 175 181 189 193 201 205 207 210 210 211 209 206 203 192 187 181 177 174 174 175 180 188 196 189 197 206 196 223 259 293 296 291 299 299 309 310 313 319 329
35 330 313 304 197 158 203 273 189 179 184 185 192 202 208 212 217 216 215 212 211 208 203 197 194 192 196 195 194 196 204 213 214 212 212 217 230 246 277 289 298 292 309 295 302 314 316 333 333
327 324 317 306 206 199 207 240 184 189 190 193 193 205 213 217 222 218 218 219 218 214 209 206 203 203 206 206 207 210 212 211 206 208 218 225 234 245 257 284 295 298 313 308 308 320 323 332 333
298 294 307 304 256 228 234 242 210 194 202 205 202 205 217 222 225 225 227 228 229 225 221 216 214 212 213 216 218 222 222 217 212 217 229 233 240 235 230 264 280 277 279 301 314 313 323 328 331
311 320 323 304 349 220 280 255 235 200 206 207 203 204 216 225 227 228 228 232 236 231 225 222 221 220 218 222 226 232 233 231 233 232 232 239 228 224 249 276 273 277 290 298 299 306 315 321 329
320 312 319 318 347 208 294 270 223 221 218 217 219 218 218 224 224 226 229 234 238 236 229 226 222 223 221 223 229 234 237 236 239 237 233 233 220 230 247 261 272 284 299 306 304 303 307 318 330
310 326 293 319 310 316 265 308 256 224 214 215 219 216 217 220 225 226 224 228 231 229 222 222 222 223 224 227 232 235 237 237 242 247 224 233 232 233 236 263 281 290 288 294 302 308 314 317 327
291 336 333 332 299 261 175 265 279 23 231 224 222 220 221 220 221 224 225 227 232 224 216 214 216 218 224 229 231 233 237 239 243 245 224 232 236 241 255 260 268 277 285 286 288 297 303 310 315
300 298 316 70 305 257 50 247 290 212 225 236 220 221 221 218 219 222 228 232 231 227 219 210 212 214 221 227 230 232 236 236 235 231 220 225 237 241 237 245 266 265 274 293 298 289 289 293 304
175 312 304 259 238 313 56 220 261 266 252 251 267 215 217 216 216 217 220 224 228 226 221 217 212 215 219 226 228 229 231 232 234 233 229 228 232 233 234 253 261 268 281 292 303 311 311 304 306
258 265 271 288 302 316 131 250 293 277 305 286 281 237 213 210 215 214 219 222 226 228 225 221 219 218 222 225 227 229 230 231 233 233 231 229 230 234 243 248 255 265 274 291 294 304 315 312 311
186 216 280 254 176 245 289 277 284 298 323 323 337 222 207 203 205 214 218 221 224 222 224 225 225 222 225 227 230 231 232 232 232 231 232 233 234 240 246 245 257 268 277 287 300 302 302 305 315
231 149 196 209 242 245 211 267 281 329 330 350 353 257 217 207 204 211 217 222 225 227 226 226 228 228 223 228 232 234 234 234 234 234 234 234 235 237 239 241 253 266 277 287 294 297 297 303 311
177 208 207 222 227 255 261 254 205 276 330 336 344 313 223 213 216 212 212 224 226 224 223 221 223 226 228 229 232 234 236 235 234 235 237 237 237 236 237 242 252 261 269 280 287 287 294 301 306
234 265 236 236 199 232 281 258 277 292 331 333 341 347 265 228 217 216 220 216 226 227 225 220 218 224 228 231 233 233 236 237 237 237 238 239 239 239 241 245 250 258 269 286 284 286 297 294 302
Height
1515 1514 1513 1513 1518 1513 1524 1524 1518 1521 1524 1525 1529 1531 1531 1532 1532 1538 1536 1540 1545 1549 1551 1554 1555 1557 1559 1560 1561 1562 1563 1564 1564 1565 1566 1566 1567 1568 1569 1570 1570 1570 1570 1571 1572 1573 1574 1574 1575
1516 1514 1513 1512 1518 1524 1526 1517 1520 1522 1524 1527 1530 1531 1532 1533 1534 1536 1538 1542 1546 1550 1552 1555 1557 1558 1560 1561 1562 1563 1564 1565 1566 1566 1567 1568 1569 1570 1571 1571 1572 1573 1573 1573 1574 1574 1575 1576 1577
1517 1516 1517 1516 1521 1528 1526 1519 1520 1523 1525 1526 1529 1532 1533 1535 1535 1538 1540 1543 1547 1551 1553 1556 1558 1559 1561 1562 1563 1564 1565 1566 1568 1568 1569 1569 1570 1571 1573 1574 1574 1575 1575 1575 1575 1576 1576 1577 1578
1518 1519 1520 1519 1524 1522 1519 1519 1521 1523 1527 1528 1529 1532 1535 1535 1537 1540 1542 1545 1549 1552 1554 1557 1559 1561 1562 1563 1565 1566 1566 1568 1569 1569 1570 1570 1572 1573 1575 1576 1575 1577 1577 1577 1577 1578 1579 1579 1580
1519 1518 1519 1520 1522 1520 1518 1520 1522 1523 1526 1528 1528 1533 1537 1539 1540 1542 1544 1547 1550 1553 1555 1557 1560 1562 1564 1565 1566 1567 1567 1568 1569 1570 1570 1572 1573 1575 1577 1577 1577 1578 1578 1579 1579 1580 1580 1581 1582
1519 1519 1521 1526 1523 1520 1519 1521 1523 1525 1527 1529 1531 1534 1540 1539 1541 1543 1546 1548 1551 1553 1555 1557 1560 1562 1564 1566 1566 1567 1568 1569 1571 1571 1572 1574 1575 1577 1578 1578 1579 1580 1580 1580 1581 1581 1582 1582 1583
1519 1517 1523 1523 1524 1522 1520 1523 1524 1526 1527 1529 1531 1534 1539 1540 1541 1544 1547 1549 1551 1554 1556 1558 1560 1562 1564 1566 1567 1568 1569 1570 1572 1573 1574 1575 1577 1578 1579 1580 1581 1581 1582 1582 1582 1583 1583 1583 1584
1520 1519 1523 1522 1524 1523 1520 1523 1525 1525 1528 1530 1532 1533 1538 1539 1542 1545 1547 1550 1552 1554 1557 1559 1560 1562 1565 1566 1567 1568 1570 1571 1573 1574 1575 1576 1577 1579 1580 1580 1581 1582 1583 1583 1583 1584 1584 1584 1585
1520 1520 1523 1520 1522 1518 1519 1521 1526 1527 1529 1531 1532 1533 1535 1537 1542 1545 1547 1550 1552 1554 1556 1558 1560 1562 1564 1566 1568 1569 1571 1573 1573 1575 1576 1577 1579 1580 1581 1581 1582 1583 1583 1584 1585 1585 1585 1585 1585
1519 1520 1518 1515 1514 1514 1517 1520 1524 1528 1529 1530 1532 1533 1536 1538 1541 1544 1546 1549 1551 1553 1555 1558 1560 1562 1564 1566 1568 1570 1572 1573 1574 1575 1576 1578 1579 1580 1581 1582 1583 1583 1584 1584 1585 1585 1585 1585 1585
1518 1518 1516 1512 1512 1514 1517 1521 1523 1526 1528 1527 1529 1532 1535 1538 1541 1544 1547 1549 1551 1553 1555 1557 1559 1562 1564 1566 1568 1570 1572 1573 1574 1576 1577 1578 1579 1581 1582 1582 1583 1584 1584 1584 1585 1585 1584 1584 1584
1516 1515 1515 1512 1512 1514 1517 1519 1522 1524 1524 1524 1527 1530 1534 1537 1540 1543 1546 1548 1550 1552 1554 1557 1559 1561 1564 1565 1567 1569 1571 1573 1575 1576 1578 1579 1581 1582 1582 1583 1583 1584 1584 1584 1584 1584 1583 1583 1582
1514 1512 1511 1510 1511 1513 1517 1519 1521 1523 1524 1524 1527 1531 1534 1537 1539 1542 1544 1547 1549 1551 1553 1555 1558 1561 1563 1565 1567 1569 1571 1573 1575 1577 1578 1580 1581 1582 1583 1583 1583 1584 1584 1584 1584 1583 1582 1582 1581
1511 1509 1508 1507 1509 1512 1514 1519 1521 1522 1523 1525 1527 1530 1533 1536 1537 1540 1542 1545 1548 1551 1553 1555 1558 1561 1562 1565 1567 1569 1572 1574 1575 1577 1578 1580 1581 1582 1582 1583 1584 1584 1584 1584 1583 1582 1581 1580 1579
1509 1507 1506 1506 1508 1510 1513 1519 1515 1517 1521 1523 1526 1530 1533 1535 1536 1537 1540 1543 1547 1550 1552 1554 1557 1559 1562 1564 1567 1569 1571 1573 1575 1576 1578 1579 1580 1581 1582 1582 1583 1583 1583 1582 1582 1581 1580 1579 1577
1509 1507 1512 1505 1507 1510 1511 1510 1509 1513 1517 1520 1524 1527 1530 1532 1533 1536 1539 1542 1545 1548 1551 1553 1556 1559 1562 1564 1567 1569 1571 1573 1574 1576 1577 1578 1579 1580 1580 1581 1581 1582 1581 1580 1580 1580 1578 1576 1575
1510 1516 1511 1508 1505 1507 1510 1505 1505 1510 1513 1517 1521 1524 1527 1529 1531 1533 1536 1539 1543 1546 1549 1551 1554 1557 1560 1563 1566 1568 1569 1571 1573 1574 1576 1577 1578 1578 1579 1579 1580 1579 1579 1578 1578 1578 1576 1575 1574
1520 1515 1507 1510 1502 1504 1507 1503 1504 1507 1509 1511 1515 1520 1523 1526 1526 1530 1533 1537 1540 1543 1546 1550 1552 1555 1558 1562 1564 1566 1567 1569 1571 1572 1574 1575 1576 1577 1578 1578 1578 1577 1576 1575 1576 1575 1575 1573 1572
1514 1514 1510 1497 1496 1500 1495 1494 1498 1503 1507 1509 1510 1514 1518 1520 1522 1527 1530 1534 1537 1540 1543 1546 1549 1552 1556 1558 1561 1563 1565 1567 1569 1570 1572 1573 1574 1575 1576 1576 1575 1573 1573 1574 1574 1573 1572 1572 1570
1509 1511 1504 1496 1495 1499 1494 1493 1493 1497 1496 1499 1503 1506 1511 1514 1519 1521 1525 1529 1531 1535 1538 1542 1545 1549 1552 1555 1558 1561 1563 1565 1567 1568 1569 1571 1572 1573 1573 1573 1572 1570 1572 1572 1572 1572 1571 1570 1569
1503 1508 1503 1506 1500 1497 1498 1492 1491 1489 1493 1496 1499 1502 1505 1508 1512 1516 1519 1523 1526 1529 1533 1537 1541 1544 1548 1551 1554 1557 1559 1561 1563 1564 1566 1568 1569 1570 1571 1570 1570 1570 1571 1571 1571 1570 1570 1570 1569
1508 1498 1500 1498 1501 1505 1498 1503 1489 1483 1486 1490 1491 1494 1497 1501 1506 1510 1514 1517 1520 1523 1528 1532 1536 1540 1544 1547 1550 1552 1555 1557 1559 1561 1563 1565 1567 1568 1569 1568 1569 1570 1570 1570 1570 1570 1570 1569 1568
1502 1497 1501 1501 1501 1502 1504 1507 1481 1485 1485 1479 1480 1483 1487 1492 1498 1503 1507 1511 1515 1519 1523 1527 1532 1535 1539 1542 1545 1548 1551 1554 1556 1558 1561 1563 1565 1566 1566 1566 1567 1568 1569 1569 1569 1569 1569 1567 1566
1496 1496 1500 1501 1502 1507 1504 1501 1478 1479 1471 1465 1468 1474 1478 1483 1489 1495 1500 1505 1509 1514 1519 1523 1526 1530 1534 1538 1541 1544 1547 1550 1553 1555 1557 1560 1562 1563 1564 1565 1565 1565 1566 1567 1567 1566 1566 1564 1563
1497 1498 1514 1515 1511 1507 1504 1505 1477 1464 1460 1460 1459 1464 1469 1476 1482 1488 1493 1497 1503 1507 1512 1517 1521 1525 1528 1532 1536 1539 1542 1546 1549 1552 1555 1557 1559 1561 1562 1563 1563 1564 1565 1565 1565 1565 1564 1563 1561
1493 1496 1513 1533 1522 1509 1505 1498 1469 1458 1456 1455 1457 1458 1463 1470 1476 1481 1485 1490 1495 1501 1506 1511 1516 1520 1524 1527 1531 1535 1538 1542 1545 1548 1551 1553 1555 1558 1560 1560 1561 1562 1562 1563 1563 1563 1562 1561 1560
1492 1499 1486 1498 1514 1514 1494 1480 1462 1457 1452 1453 1453 1455 1459 1464 1469 1474 1479 1484 1489 1494 1499 1505 1511 1516 1519 1523 1527 1530 1534 1538 1541 1544 1547 1549 1551 1554 1556 1557 1557 1558 1559 1560 1560 1560 1560 1559 1557
1485 1484 1499 1501 1517 1518 1496 1496 1479 1462 1458 1456 1455 1456 1459 1462 1465 1469 1474 1478 1482 1487 1492 1499 1504 1509 1514 1518 1522 1525 1529 1533 1537 1539 1541 1544 1547 1549 1551 1552 1553 1553 1554 1554 1554 1554 1555 1554 1554
1487 1487 1490 1486 1493 1501 1505 1485 1458 1460 1458 1459 1456 1455 1455 1459 1463 1465 1467 1472 1476 1481 1485 1491 1496 1502 1507 1512 1515 1520 1523 1527 1530 1533 1537 1540 1543 1544 1545 1546 1546 1547 1547 1547 1548 1549 1549 1550 1549
1482 1480 1480 1487 1497 1496 1494 1479 1453 1458 1457 1457 1455 1453 1453 1453 1456 1461 1465 1467 1469 1474 1479 1483 1489 1494 1499 1504 1509 1513 1517 1521 1524 1528 1531 1533 1535 1537 1539 1539 1540 1541 1542 1544 1545 1545 1546 1546 1545